DLH884 EDDF-EETN

Flight info

Callsign DLH884
Flight time 1h 58m
Altitude 37000
Route TOBAK2D/07C TOBAK N858 FEDZA Y172 MAG DCT RENKI L132 BODLA DCT PENOR DCT ANFEV DCT DIPEB DCT EVONA DCT TODNA DCT SULUN
Aircraft A319/M-SDE3FGHIRWY/LB1

Departure

Time 2026-04-15 12:28
Airport Frankfurt Main Airport (EDDF)

Arrival

Time 2026-04-15 14:26
Airport Lennart Meri Tallinn Airport (EETN)
Time Latitude Longitude Altitude Speed Heading
2026-04-15 11:48 50.04466 8.56485 360 ft 0 kts 159°
2026-04-15 12:15 50.04480 8.56476 363 ft 4 kts 159°
2026-04-15 12:16 50.04506 8.56462 360 ft 4 kts 166°
2026-04-15 12:16 50.04530 8.56459 362 ft 4 kts 211°
2026-04-15 12:16 50.04537 8.56468 364 ft 0 kts 249°
2026-04-15 12:16 50.04530 8.56437 362 ft 4 kts 249°
2026-04-15 12:17 50.04520 8.56398 356 ft 4 kts 249°
2026-04-15 12:17 50.04516 8.56380 356 ft 0 kts 249°
2026-04-15 12:21 50.04515 8.56378 356 ft 1 kts 249°
2026-04-15 12:21 50.04508 8.56348 363 ft 5 kts 249°
2026-04-15 12:21 50.04490 8.56276 356 ft 9 kts 249°
2026-04-15 12:21 50.04463 8.56162 359 ft 13 kts 250°
2026-04-15 12:22 50.04421 8.56038 356 ft 13 kts 212°
2026-04-15 12:22 50.04336 8.56059 361 ft 13 kts 160°
2026-04-15 12:22 50.04285 8.56159 355 ft 13 kts 107°
2026-04-15 12:22 50.04237 8.56208 356 ft 9 kts 162°
2026-04-15 12:23 50.04177 8.56242 355 ft 10 kts 159°
2026-04-15 12:23 50.04117 8.56234 359 ft 10 kts 236°
2026-04-15 12:23 50.04089 8.56119 354 ft 14 kts 250°
2026-04-15 12:23 50.04047 8.55944 356 ft 20 kts 249°
2026-04-15 12:24 50.03991 8.55705 352 ft 26 kts 250°
2026-04-15 12:24 50.03930 8.55453 352 ft 18 kts 249°
2026-04-15 12:24 50.03884 8.55263 351 ft 19 kts 249°
2026-04-15 12:24 50.03837 8.55069 356 ft 19 kts 249°
2026-04-15 12:25 50.03790 8.54869 353 ft 20 kts 249°
2026-04-15 12:25 50.03741 8.54659 348 ft 21 kts 250°
2026-04-15 12:25 50.03688 8.54436 345 ft 23 kts 249°
2026-04-15 12:25 50.03656 8.54327 344 ft 6 kts 226°
2026-04-15 12:26 50.03621 8.54306 344 ft 4 kts 176°
2026-04-15 12:26 50.03575 8.54328 339 ft 10 kts 158°
2026-04-15 12:26 50.03514 8.54375 349 ft 9 kts 138°
2026-04-15 12:26 50.03498 8.54451 347 ft 1 kts 68°
2026-04-15 12:27 50.03514 8.54514 347 ft 29 kts 69°
2026-04-15 12:27 50.03673 8.55173 348 ft 101 kts 69°
2026-04-15 12:27 50.03996 8.56508 361 ft 156 kts 69°
2026-04-15 12:27 50.04400 8.58185 782 ft 166 kts 69°
2026-04-15 12:28 50.04817 8.59873 1443 ft 170 kts 69°
2026-04-15 12:28 50.05254 8.61626 1966 ft 181 kts 70°
2026-04-15 12:28 50.05706 8.63564 2347 ft 202 kts 71°
2026-04-15 12:28 50.06184 8.65757 2812 ft 222 kts 72°
2026-04-15 12:29 50.06671 8.68047 3697 ft 224 kts 72°
2026-04-15 12:29 50.07326 8.70279 4541 ft 232 kts 54°
2026-04-15 12:29 50.08556 8.71998 5170 ft 251 kts 30°
2026-04-15 12:29 50.10211 8.73175 5745 ft 269 kts 24°
2026-04-15 12:30 50.11971 8.74319 6580 ft 278 kts 22°
2026-04-15 12:30 50.13780 8.75493 7409 ft 285 kts 22°
2026-04-15 12:30 50.15619 8.76695 8282 ft 289 kts 22°
2026-04-15 12:30 50.17478 8.77928 9207 ft 292 kts 23°
2026-04-15 12:31 50.19358 8.79202 10096 ft 296 kts 23°
2026-04-15 12:31 50.21280 8.80514 10629 ft 312 kts 23°
2026-04-15 12:31 50.23334 8.81957 10954 ft 334 kts 25°
2026-04-15 12:31 50.25453 8.83570 11591 ft 342 kts 26°
2026-04-15 12:32 50.27586 8.85268 12350 ft 346 kts 26°
2026-04-15 12:32 50.29739 8.87011 13130 ft 350 kts 26°
2026-04-15 12:32 50.31914 8.88772 13893 ft 354 kts 26°
2026-04-15 12:32 50.34122 8.90544 14579 ft 358 kts 26°
2026-04-15 12:33 50.36367 8.92333 15251 ft 362 kts 25°
2026-04-15 12:33 50.38606 8.94110 15904 ft 365 kts 25°
2026-04-15 12:33 50.40884 8.95914 16551 ft 369 kts 25°
2026-04-15 12:33 50.43189 8.97739 17200 ft 373 kts 25°
2026-04-15 12:34 50.45515 8.99584 17845 ft 377 kts 25°
2026-04-15 12:34 50.47864 9.01449 18492 ft 380 kts 25°
2026-04-15 12:34 50.50234 9.03336 19058 ft 384 kts 25°
2026-04-15 12:34 50.52625 9.05243 19635 ft 386 kts 25°
2026-04-15 12:35 50.54999 9.07138 20193 ft 389 kts 25°
2026-04-15 12:35 50.57427 9.09081 20787 ft 392 kts 25°
2026-04-15 12:35 50.59863 9.11029 21374 ft 394 kts 25°
2026-04-15 12:35 50.62317 9.12988 21951 ft 397 kts 25°
2026-04-15 12:36 50.64786 9.14971 22530 ft 400 kts 25°
2026-04-15 12:36 50.67271 9.16975 23097 ft 403 kts 26°
2026-04-15 12:36 50.69649 9.19369 23632 ft 408 kts 36°
2026-04-15 12:36 50.71728 9.22437 24095 ft 413 kts 47°
2026-04-15 12:37 50.73435 9.26118 24531 ft 418 kts 58°
2026-04-15 12:37 50.74769 9.30221 24976 ft 421 kts 62°
2026-04-15 12:37 50.76069 9.34379 25405 ft 424 kts 62°
2026-04-15 12:37 50.77380 9.38556 25826 ft 426 kts 62°
2026-04-15 12:38 50.78702 9.42762 26241 ft 428 kts 61°
2026-04-15 12:38 50.80027 9.46985 26647 ft 430 kts 61°
2026-04-15 12:38 50.81358 9.51240 27053 ft 433 kts 61°
2026-04-15 12:38 50.82689 9.55513 27455 ft 435 kts 61°
2026-04-15 12:39 50.84029 9.59826 27862 ft 437 kts 61°
2026-04-15 12:39 50.85368 9.64153 28256 ft 439 kts 61°
2026-04-15 12:39 50.86714 9.68503 28650 ft 442 kts 61°
2026-04-15 12:39 50.88072 9.72888 29034 ft 444 kts 60°
2026-04-15 12:40 50.89432 9.77286 29416 ft 446 kts 60°
2026-04-15 12:40 50.90797 9.81709 29793 ft 448 kts 60°
2026-04-15 12:40 50.92167 9.86167 30170 ft 451 kts 60°
2026-04-15 12:40 50.93540 9.90657 30468 ft 454 kts 60°
2026-04-15 12:41 50.94916 9.95167 30789 ft 455 kts 60°
2026-04-15 12:41 50.96297 9.99700 31102 ft 456 kts 60°
2026-04-15 12:41 50.97677 10.04233 31407 ft 458 kts 60°
2026-04-15 12:41 50.99044 10.08728 31688 ft 459 kts 60°
2026-04-15 12:42 51.00449 10.13358 32063 ft 459 kts 60°
2026-04-15 12:42 51.01808 10.17849 32483 ft 457 kts 60°
2026-04-15 12:42 51.03175 10.22392 32903 ft 455 kts 59°
2026-04-15 12:42 51.04538 10.26925 33322 ft 454 kts 59°
2026-04-15 12:43 51.06037 10.31306 33742 ft 447 kts 51°
2026-04-15 12:43 51.07960 10.35120 34155 ft 438 kts 40°
2026-04-15 12:43 51.10206 10.38333 34529 ft 431 kts 32°
2026-04-15 12:43 51.12664 10.41016 34891 ft 427 kts 28°
2026-04-15 12:44 51.15142 10.43600 35220 ft 426 kts 28°
2026-04-15 12:44 51.17613 10.46212 35544 ft 425 kts 28°
2026-04-15 12:44 51.20068 10.48832 35864 ft 424 kts 28°
2026-04-15 12:44 51.21691 10.50566 36071 ft 424 kts 28°
2026-04-15 12:45 51.24136 10.53177 36406 ft 422 kts 28°
2026-04-15 12:45 51.26575 10.55776 36768 ft 419 kts 28°
2026-04-15 12:45 51.28993 10.58350 37090 ft 418 kts 28°
2026-04-15 12:45 51.31416 10.60928 37233 ft 417 kts 28°
2026-04-15 12:46 51.33822 10.63490 37245 ft 415 kts 28°
2026-04-15 12:46 51.38616 10.68615 37237 ft 415 kts 29°
2026-04-15 12:47 51.43285 10.74090 37238 ft 417 kts 32°
2026-04-15 12:47 51.47864 10.79800 37242 ft 417 kts 32°
2026-04-15 12:48 51.52416 10.85586 37241 ft 420 kts 37°
2026-04-15 12:48 51.56275 10.92689 37267 ft 427 kts 45°
2026-04-15 12:49 51.60029 11.00093 37262 ft 427 kts 45°
2026-04-15 12:49 51.63777 11.07513 37259 ft 427 kts 45°
2026-04-15 12:50 51.67520 11.14957 37255 ft 428 kts 45°
2026-04-15 12:50 51.71265 11.22423 37274 ft 428 kts 45°
2026-04-15 12:51 51.74998 11.29882 37304 ft 427 kts 45°
2026-04-15 12:51 51.78732 11.37367 37297 ft 428 kts 45°
2026-04-15 12:52 51.82460 11.44863 37288 ft 428 kts 45°
2026-04-15 12:52 51.86183 11.52373 37284 ft 428 kts 45°
2026-04-15 12:53 51.89908 11.59898 37280 ft 428 kts 45°
2026-04-15 12:53 51.93623 11.67446 37272 ft 428 kts 45°
2026-04-15 12:54 51.97334 11.75011 37272 ft 429 kts 45°
2026-04-15 12:54 52.01019 11.82645 37282 ft 431 kts 47°
2026-04-15 12:55 52.04526 11.90545 37263 ft 432 kts 48°
2026-04-15 12:55 52.07965 11.98557 37260 ft 432 kts 49°
2026-04-15 12:56 52.11428 12.06544 37260 ft 432 kts 48°
2026-04-15 12:56 52.14910 12.14486 37266 ft 431 kts 48°
2026-04-15 12:57 52.18395 12.22445 37253 ft 432 kts 48°
2026-04-15 12:57 52.21869 12.30438 37249 ft 432 kts 48°
2026-04-15 12:58 52.25335 12.38456 37246 ft 432 kts 48°
2026-04-15 12:58 52.28800 12.46486 37269 ft 432 kts 49°
2026-04-15 12:59 52.33960 12.58474 37276 ft 431 kts 49°
2026-04-15 12:59 52.37408 12.66521 37261 ft 432 kts 49°
2026-04-15 13:00 52.40859 12.74575 37246 ft 432 kts 49°
2026-04-15 13:00 52.44293 12.82644 37243 ft 432 kts 49°
2026-04-15 13:01 52.47728 12.90739 37240 ft 432 kts 49°
2026-04-15 13:01 52.51155 12.98840 37243 ft 432 kts 49°
2026-04-15 13:02 52.54581 13.06962 37262 ft 432 kts 49°
2026-04-15 13:02 52.58004 13.15111 37259 ft 434 kts 49°
2026-04-15 13:03 52.61430 13.23299 37253 ft 435 kts 49°
2026-04-15 13:03 52.64861 13.31503 37249 ft 435 kts 49°
2026-04-15 13:04 52.68277 13.39685 37249 ft 436 kts 49°
2026-04-15 13:04 52.71700 13.47935 37253 ft 436 kts 50°
2026-04-15 13:05 52.75127 13.56228 37250 ft 436 kts 50°
2026-04-15 13:05 52.78542 13.64503 37257 ft 436 kts 50°
2026-04-15 13:06 52.81952 13.72795 37266 ft 436 kts 50°
2026-04-15 13:06 52.85359 13.81107 37255 ft 437 kts 50°
2026-04-15 13:07 52.88760 13.89452 37249 ft 437 kts 50°
2026-04-15 13:07 52.92527 13.97224 37269 ft 427 kts 36°
2026-04-15 13:08 52.97189 14.03166 37245 ft 423 kts 30°
2026-04-15 13:08 53.01919 14.08997 37242 ft 424 kts 31°
2026-04-15 13:09 53.06648 14.14875 37240 ft 424 kts 31°
2026-04-15 13:09 53.11387 14.20763 37246 ft 425 kts 31°
2026-04-15 13:10 53.16131 14.26657 37264 ft 426 kts 31°
2026-04-15 13:10 53.20880 14.32578 37260 ft 427 kts 31°
2026-04-15 13:11 53.25634 14.38535 37262 ft 428 kts 31°
2026-04-15 13:11 53.30405 14.44340 37263 ft 426 kts 28°
2026-04-15 13:12 53.35408 14.49728 37265 ft 424 kts 26°
2026-04-15 13:12 53.40416 14.54992 37278 ft 426 kts 26°
2026-04-15 13:13 53.45405 14.60376 37286 ft 427 kts 27°
2026-04-15 13:13 53.50348 14.65816 37274 ft 428 kts 27°
2026-04-15 13:14 53.55325 14.71332 37279 ft 428 kts 27°
2026-04-15 13:14 53.60310 14.76847 37289 ft 429 kts 27°
2026-04-15 13:15 53.65310 14.82377 37270 ft 430 kts 27°
2026-04-15 13:15 53.70318 14.87936 37267 ft 431 kts 27°
2026-04-15 13:16 53.75330 14.93519 37264 ft 432 kts 27°
2026-04-15 13:16 53.80354 14.99126 37266 ft 432 kts 27°
2026-04-15 13:17 53.85385 15.04752 37281 ft 434 kts 27°
2026-04-15 13:17 53.90424 15.10413 37278 ft 435 kts 27°
2026-04-15 13:18 53.95428 15.16067 37280 ft 435 kts 27°
2026-04-15 13:18 54.00476 15.21778 37282 ft 436 kts 27°
2026-04-15 13:19 54.05523 15.27496 37303 ft 436 kts 27°
2026-04-15 13:19 54.10581 15.33244 37289 ft 437 kts 27°
2026-04-15 13:20 54.15643 15.39020 37290 ft 438 kts 27°
2026-04-15 13:20 54.20705 15.44807 37298 ft 438 kts 27°
2026-04-15 13:21 54.25775 15.50620 37295 ft 439 kts 27°
2026-04-15 13:21 54.30847 15.56457 37311 ft 440 kts 28°
2026-04-15 13:22 54.35930 15.62325 37297 ft 441 kts 28°
2026-04-15 13:22 54.41022 15.68220 37296 ft 442 kts 28°
2026-04-15 13:23 54.46114 15.74120 37298 ft 442 kts 28°
2026-04-15 13:23 54.51212 15.80048 37314 ft 443 kts 29°
2026-04-15 13:24 54.56321 15.86026 37296 ft 444 kts 29°
2026-04-15 13:24 54.61435 15.92026 37293 ft 445 kts 29°
2026-04-15 13:25 54.66561 15.98046 37291 ft 446 kts 29°
2026-04-15 13:25 54.71678 16.04086 37293 ft 446 kts 29°
2026-04-15 13:26 54.76773 16.10122 37298 ft 447 kts 29°
2026-04-15 13:26 54.81907 16.16218 37287 ft 447 kts 30°
2026-04-15 13:27 54.87043 16.22324 37288 ft 448 kts 30°
2026-04-15 13:27 54.92179 16.28455 37291 ft 448 kts 30°
2026-04-15 13:28 54.97317 16.34618 37291 ft 448 kts 30°
2026-04-15 13:28 55.01623 16.39791 37285 ft 448 kts 30°
2026-04-15 13:29 55.06753 16.45960 37285 ft 448 kts 30°
2026-04-15 13:29 55.11847 16.52116 37285 ft 448 kts 30°
2026-04-15 13:30 55.16973 16.58330 37297 ft 448 kts 30°
2026-04-15 13:30 55.22102 16.64562 37290 ft 449 kts 30°
2026-04-15 13:31 55.27233 16.70829 37276 ft 450 kts 30°
2026-04-15 13:31 55.32396 16.77158 37271 ft 450 kts 30°
2026-04-15 13:32 55.37533 16.83458 37267 ft 450 kts 31°
2026-04-15 13:32 55.42638 16.89745 37274 ft 451 kts 31°
2026-04-15 13:33 55.47790 16.96120 37249 ft 452 kts 31°
2026-04-15 13:33 55.52946 17.02508 37247 ft 453 kts 31°
2026-04-15 13:34 55.58102 17.08921 37240 ft 454 kts 31°
2026-04-15 13:34 55.63336 17.15150 37243 ft 450 kts 24°
2026-04-15 13:35 55.69137 17.19073 37247 ft 446 kts 13°
2026-04-15 13:35 55.75047 17.22441 37234 ft 448 kts 18°
2026-04-15 13:36 55.80422 17.28199 37232 ft 457 kts 38°
2026-04-15 13:36 55.84944 17.36224 37229 ft 460 kts 43°
2026-04-15 13:37 55.89420 17.44385 37246 ft 461 kts 43°
2026-04-15 13:37 55.93904 17.52592 37238 ft 461 kts 43°
2026-04-15 13:38 55.98381 17.60809 37242 ft 462 kts 43°
2026-04-15 13:38 56.02860 17.69057 37243 ft 462 kts 43°
2026-04-15 13:39 56.07337 17.77327 37244 ft 463 kts 43°
2026-04-15 13:39 56.11809 17.85608 37261 ft 463 kts 44°
2026-04-15 13:40 56.16249 17.93876 37251 ft 463 kts 44°
2026-04-15 13:40 56.20699 18.02243 37255 ft 464 kts 44°
2026-04-15 13:41 56.25127 18.10698 37246 ft 464 kts 45°
2026-04-15 13:41 56.29533 18.19170 37247 ft 464 kts 45°
2026-04-15 13:42 56.33948 18.27680 37250 ft 464 kts 45°
2026-04-15 13:42 56.38352 18.36187 37249 ft 464 kts 45°
2026-04-15 13:43 56.42752 18.44710 37240 ft 464 kts 45°
2026-04-15 13:43 56.47144 18.53251 37238 ft 463 kts 45°
2026-04-15 13:44 56.51532 18.61798 37238 ft 463 kts 45°
2026-04-15 13:44 56.55879 18.70313 37247 ft 463 kts 46°
2026-04-15 13:45 56.60244 18.78913 37240 ft 463 kts 46°
2026-04-15 13:47 56.77651 19.13450 37235 ft 463 kts 47°
2026-04-15 13:47 56.81984 19.22143 37236 ft 463 kts 47°
2026-04-15 13:48 56.86313 19.30858 37237 ft 463 kts 47°
2026-04-15 13:48 56.90643 19.39593 37240 ft 463 kts 47°
2026-04-15 13:49 56.94968 19.48342 37239 ft 463 kts 47°
2026-04-15 13:49 56.99284 19.57122 37248 ft 463 kts 47°
2026-04-15 13:50 57.03556 19.65839 37245 ft 463 kts 47°
2026-04-15 13:50 57.07858 19.74627 37244 ft 462 kts 47°
2026-04-15 13:51 57.12149 19.83439 37246 ft 462 kts 48°
2026-04-15 13:51 57.16422 19.92284 37244 ft 462 kts 48°
2026-04-15 13:52 57.20828 20.00928 37240 ft 462 kts 45°
2026-04-15 13:52 57.25379 20.09312 37243 ft 462 kts 44°
2026-04-15 13:53 57.29924 20.17726 37245 ft 462 kts 45°
2026-04-15 13:53 57.34427 20.26229 37243 ft 462 kts 45°
2026-04-15 13:54 57.38895 20.34785 37246 ft 462 kts 46°
2026-04-15 13:54 57.43355 20.43359 37246 ft 461 kts 46°
2026-04-15 13:55 57.47815 20.51920 37245 ft 461 kts 46°
2026-04-15 13:55 57.52244 20.60447 37242 ft 461 kts 46°
2026-04-15 13:56 57.56691 20.69046 37243 ft 461 kts 46°
2026-04-15 13:56 57.61128 20.77663 37247 ft 461 kts 47°
2026-04-15 13:57 57.65569 20.86322 37238 ft 462 kts 47°
2026-04-15 13:57 57.70008 20.95001 37237 ft 462 kts 47°
2026-04-15 13:58 57.74445 21.03710 37238 ft 462 kts 47°
2026-04-15 13:58 57.78873 21.12446 37220 ft 462 kts 47°
2026-04-15 13:59 57.83291 21.21197 37226 ft 462 kts 47°
2026-04-15 13:59 57.87717 21.29997 37231 ft 463 kts 47°
2026-04-15 14:00 57.92134 21.38791 37237 ft 463 kts 47°
2026-04-15 14:00 57.96549 21.47625 37243 ft 463 kts 47°
2026-04-15 14:01 58.02831 21.61395 37252 ft 462 kts 54°
2026-04-15 14:02 58.06721 21.71040 37231 ft 461 kts 53°
2026-04-15 14:02 58.08668 21.75869 36977 ft 460 kts 54°
2026-04-15 14:02 58.10604 21.80678 36725 ft 459 kts 54°
2026-04-15 14:02 58.12534 21.85482 36477 ft 459 kts 54°
2026-04-15 14:03 58.14460 21.90291 36230 ft 459 kts 54°
2026-04-15 14:03 58.16386 21.95120 35997 ft 459 kts 54°
2026-04-15 14:03 58.18306 21.99939 35758 ft 459 kts 54°
2026-04-15 14:03 58.20232 22.04781 35519 ft 459 kts 55°
2026-04-15 14:04 58.22146 22.09606 35178 ft 457 kts 55°
2026-04-15 14:04 58.24055 22.14430 34597 ft 456 kts 56°
2026-04-15 14:04 58.25951 22.19226 34028 ft 453 kts 56°
2026-04-15 14:04 58.27834 22.24001 33460 ft 450 kts 56°
2026-04-15 14:05 58.29701 22.28745 32912 ft 446 kts 57°
2026-04-15 14:05 58.31548 22.33451 32366 ft 443 kts 57°
2026-04-15 14:05 58.33384 22.38130 31827 ft 440 kts 57°
2026-04-15 14:05 58.35185 22.42723 31302 ft 437 kts 58°
2026-04-15 14:06 58.36995 22.47345 30780 ft 434 kts 58°
2026-04-15 14:06 58.38796 22.51959 30246 ft 432 kts 59°
2026-04-15 14:06 58.40576 22.56539 29691 ft 428 kts 59°
2026-04-15 14:06 58.42337 22.61080 29207 ft 422 kts 59°
2026-04-15 14:07 58.44074 22.65566 28712 ft 418 kts 59°
2026-04-15 14:07 58.45787 22.70001 28239 ft 413 kts 59°
2026-04-15 14:07 58.47484 22.74400 27781 ft 409 kts 59°
2026-04-15 14:07 58.49165 22.78758 27330 ft 406 kts 58°
2026-04-15 14:08 58.50835 22.83092 26890 ft 402 kts 58°
2026-04-15 14:08 58.52487 22.87391 26445 ft 400 kts 58°
2026-04-15 14:08 58.54127 22.91673 25992 ft 397 kts 58°
2026-04-15 14:08 58.55753 22.95925 25554 ft 395 kts 58°
2026-04-15 14:09 58.57371 23.00170 25085 ft 393 kts 58°
2026-04-15 14:09 58.58981 23.04396 24623 ft 391 kts 58°
2026-04-15 14:09 58.60582 23.08602 24139 ft 390 kts 58°
2026-04-15 14:09 58.62181 23.12806 23629 ft 389 kts 58°
2026-04-15 14:10 58.63770 23.16992 23124 ft 387 kts 58°
2026-04-15 14:10 58.65346 23.21153 22605 ft 384 kts 57°
2026-04-15 14:10 58.66903 23.25271 22167 ft 380 kts 57°
2026-04-15 14:10 58.68451 23.29374 21689 ft 377 kts 57°
2026-04-15 14:11 58.69981 23.33442 21216 ft 375 kts 57°
2026-04-15 14:11 58.71501 23.37497 20760 ft 372 kts 57°
2026-04-15 14:11 58.73009 23.41525 20302 ft 370 kts 56°
2026-04-15 14:11 58.74513 23.45538 19846 ft 368 kts 56°
2026-04-15 14:12 58.76009 23.49530 19401 ft 366 kts 56°
2026-04-15 14:12 58.77492 23.53498 18949 ft 365 kts 56°
2026-04-15 14:12 58.78973 23.57466 18495 ft 363 kts 55°
2026-04-15 14:12 58.80441 23.61416 18020 ft 361 kts 56°
2026-04-15 14:13 58.81406 23.64017 17719 ft 359 kts 56°
2026-04-15 14:13 58.83318 23.69185 17150 ft 355 kts 56°
2026-04-15 14:13 58.84746 23.73045 16724 ft 352 kts 56°
2026-04-15 14:13 58.86163 23.76871 16306 ft 349 kts 56°
2026-04-15 14:14 58.87572 23.80675 15893 ft 346 kts 56°
2026-04-15 14:14 58.88965 23.84447 15487 ft 344 kts 56°
2026-04-15 14:14 58.89902 23.86989 15210 ft 342 kts 56°
2026-04-15 14:14 58.91279 23.90731 14804 ft 340 kts 56°
2026-04-15 14:15 58.92642 23.94448 14396 ft 338 kts 56°
2026-04-15 14:15 58.93998 23.98155 13983 ft 336 kts 56°
2026-04-15 14:15 58.95343 24.01839 13552 ft 333 kts 56°
2026-04-15 14:15 58.96775 24.05263 13127 ft 331 kts 45°
2026-04-15 14:16 58.98619 24.07913 12720 ft 330 kts 30°
2026-04-15 14:16 59.00700 24.09674 12538 ft 321 kts 23°
2026-04-15 14:16 59.02725 24.11287 12371 ft 311 kts 23°
2026-04-15 14:16 59.04705 24.12888 11955 ft 306 kts 24°
2026-04-15 14:17 59.06657 24.14479 11490 ft 303 kts 24°
2026-04-15 14:17 59.08587 24.16060 11065 ft 299 kts 23°
2026-04-15 14:17 59.10494 24.17623 10626 ft 295 kts 23°
2026-04-15 14:17 59.12375 24.19160 10186 ft 292 kts 23°
2026-04-15 14:18 59.14237 24.20679 9691 ft 289 kts 23°
2026-04-15 14:18 59.16085 24.22187 9175 ft 286 kts 23°
2026-04-15 14:18 59.17911 24.23679 8651 ft 284 kts 24°
2026-04-15 14:18 59.19724 24.25156 8196 ft 280 kts 24°
2026-04-15 14:19 59.21500 24.26603 7778 ft 274 kts 24°
2026-04-15 14:19 59.23275 24.28054 7148 ft 278 kts 24°
2026-04-15 14:19 59.25051 24.29510 6673 ft 275 kts 24°
2026-04-15 14:19 59.26802 24.30949 6219 ft 270 kts 24°
2026-04-15 14:20 59.28519 24.32359 5784 ft 265 kts 25°
2026-04-15 14:20 59.30209 24.33749 5363 ft 263 kts 25°
2026-04-15 14:20 59.31901 24.35143 4918 ft 263 kts 24°
2026-04-15 14:20 59.33587 24.36535 4468 ft 263 kts 24°
2026-04-15 14:21 59.35252 24.37906 4284 ft 253 kts 24°
2026-04-15 14:21 59.36807 24.39182 4223 ft 238 kts 25°
2026-04-15 14:21 59.38291 24.40397 4147 ft 225 kts 25°
2026-04-15 14:21 59.39660 24.41696 4054 ft 213 kts 37°
2026-04-15 14:22 59.40682 24.43729 3962 ft 207 kts 59°
2026-04-15 14:22 59.41261 24.46320 3669 ft 209 kts 78°
2026-04-15 14:22 59.41369 24.49136 3377 ft 206 kts 90°
2026-04-15 14:22 59.41362 24.51924 3101 ft 203 kts 90°
2026-04-15 14:23 59.41357 24.54699 2824 ft 202 kts 90°
2026-04-15 14:23 59.41356 24.57454 2553 ft 202 kts 89°
2026-04-15 14:23 59.41355 24.60207 2268 ft 199 kts 89°
2026-04-15 14:23 59.41353 24.62886 1998 ft 192 kts 89°
2026-04-15 14:24 59.41351 24.65432 1760 ft 181 kts 89°
2026-04-15 14:24 59.41349 24.67842 1503 ft 171 kts 89°
2026-04-15 14:24 59.41347 24.70085 1288 ft 158 kts 88°
2026-04-15 14:24 59.41344 24.72188 1041 ft 151 kts 88°
2026-04-15 14:25 59.41340 24.74206 817 ft 144 kts 87°
2026-04-15 14:25 59.41340 24.76148 589 ft 140 kts 86°
2026-04-15 14:25 59.41339 24.78013 431 ft 134 kts 88°
2026-04-15 14:25 59.41334 24.79809 297 ft 129 kts 86°
2026-04-15 14:26 59.41329 24.81542 175 ft 125 kts 87°
2026-04-15 14:26 59.41331 24.83007 160 ft 85 kts 90°
2026-04-15 14:26 59.41329 24.83976 162 ft 66 kts 90°
2026-04-15 14:26 59.41324 24.84761 162 ft 43 kts 91°
2026-04-15 14:27 59.41363 24.85006 162 ft 14 kts 21°
2026-04-15 14:27 59.41447 24.85011 162 ft 11 kts 358°
2026-04-15 14:27 59.41494 24.84938 162 ft 8 kts 296°
2026-04-15 14:27 59.41495 24.84839 162 ft 10 kts 270°
2026-04-15 14:28 59.41496 24.84673 162 ft 15 kts 271°
2026-04-15 14:28 59.41497 24.84442 162 ft 19 kts 270°
2026-04-15 14:28 59.41497 24.84149 162 ft 24 kts 270°
2026-04-15 14:28 59.41498 24.83795 162 ft 28 kts 270°
2026-04-15 14:29 59.41499 24.83383 162 ft 32 kts 270°
2026-04-15 14:29 59.41501 24.82986 162 ft 25 kts 270°
2026-04-15 14:29 59.41501 24.82638 162 ft 26 kts 270°
2026-04-15 14:29 59.41502 24.82285 162 ft 26 kts 270°
2026-04-15 14:30 59.41503 24.81922 162 ft 27 kts 270°
2026-04-15 14:30 59.41504 24.81553 162 ft 27 kts 270°
2026-04-15 14:30 59.41505 24.81176 162 ft 28 kts 270°
2026-04-15 14:30 59.41506 24.80841 162 ft 22 kts 270°
2026-04-15 14:31 59.41511 24.80542 162 ft 20 kts 278°
2026-04-15 14:31 59.41527 24.80387 162 ft 9 kts 274°
2026-04-15 14:31 59.41544 24.80278 162 ft 7 kts 335°
2026-04-15 14:31 59.41579 24.80277 162 ft 6 kts
2026-04-15 14:32 59.41584 24.80277 162 ft 1 kts
2026-04-15 14:32 59.41585 24.80277 162 ft 0 kts